| time (UTC) | temp F | wind direction | speed knots | gust knots | rain 1hr in | rain 24hr in | rain mn in | humidity % | barometer mb |
| 20260507192157 | 51 | 292 | 1.7 | 0.0 | 0.00 | 0.00 | 0.00 | 51 | 1017.9 |
| 20260507191159 | 51 | 337 | 1.7 | 0.0 | 0.00 | 0.00 | 0.00 | 51 | 1017.9 |
| 20260507190158 | 52 | 270 | 0.0 | 0.0 | 0.00 | 0.00 | 0.00 | 50 | 1017.9 |
| 20260507185158 | 52 | 292 | 0.9 | 0.0 | 0.00 | 0.00 | 0.00 | 50 | 1017.9 |
| 20260507184159 | 52 | 180 | 2.6 | 2.6 | 0.00 | 0.00 | 0.00 | 50 | 1017.9 |
| 20260507183158 | 53 | 270 | 4.3 | 4.3 | 0.00 | 0.00 | 0.00 | 49 | 1017.9 |
| 20260507182157 | 53 | 225 | 2.6 | 5.2 | 0.00 | 0.00 | 0.00 | 48 | 1017.9 |
| 20260507181159 | 54 | 225 | 5.2 | 3.5 | 0.00 | 0.00 | 0.00 | 48 | 1017.9 |
| 20260507180158 | 54 | 202 | 1.7 | 2.6 | 0.00 | 0.00 | 0.00 | 46 | 1017.9 |
| 20260507175158 | 55 | 180 | 3.5 | 2.6 | 0.00 | 0.00 | 0.00 | 46 | 1017.9 |
| 20260507174159 | 55 | 180 | 1.7 | 2.6 | 0.00 | 0.00 | 0.00 | 42 | 1016.9 |
| 20260507173158 | 55 | 202 | 2.6 | 3.5 | 0.00 | 0.00 | 0.00 | 41 | 1016.9 |
| 20260507172158 | 56 | 202 | 4.3 | 3.5 | 0.00 | 0.00 | 0.00 | 40 | 1016.9 |
| 20260507171158 | 57 | 157 | 3.5 | 2.6 | 0.00 | 0.00 | 0.00 | 36 | 1016.9 |
| 20260507170159 | 58 | 157 | 0.9 | 0.9 | 0.00 | 0.00 | 0.00 | 34 | 1016.9 |
| 20260507165158 | 59 | 180 | 4.3 | 4.3 | 0.00 | 0.00 | 0.00 | 34 | 1016.9 |
| 20260507164157 | 60 | 180 | 4.3 | 0.0 | 0.00 | 0.00 | 0.00 | 34 | 1016.9 |
| 20260507163158 | 60 | 202 | 5.2 | 6.1 | 0.00 | 0.00 | 0.00 | 39 | 1016.9 |
| 20260507162158 | 59 | 157 | 6.1 | 8.7 | 0.00 | 0.00 | 0.00 | 39 | 1016.9 |
| 20260507161159 | 59 | 247 | 3.5 | 3.5 | 0.00 | 0.00 | 0.00 | 37 | 1016.9 |
| 20260507160158 | 59 | 202 | 3.5 | 3.5 | 0.00 | 0.00 | 0.00 | 45 | 1016.9 |
| 20260507155158 | 58 | 180 | 5.2 | 3.5 | 0.00 | 0.00 | 0.00 | 41 | 1016.9 |
| 20260507154157 | 58 | 202 | 3.5 | 1.7 | 0.00 | 0.00 | 0.00 | 40 | 1016.9 |
| 20260507153158 | 58 | 157 | 3.5 | 2.6 | 0.00 | 0.00 | 0.00 | 39 | 1016.9 |
| 20260507152158 | 59 | 247 | 2.6 | 2.6 | 0.00 | 0.00 | 0.00 | 39 | 1016.9 |
| 20260507151159 | 59 | 180 | 4.3 | 2.6 | 0.00 | 0.00 | 0.00 | 40 | 1016.9 |
| 20260507150158 | 58 | 180 | 2.6 | 2.6 | 0.00 | 0.00 | 0.00 | 41 | 1016.9 |
| 20260507145158 | 57 | 202 | 1.7 | 3.5 | 0.00 | 0.00 | 0.00 | 40 | 1016.9 |
| 20260507144159 | 56 | 180 | 0.9 | 0.0 | 0.00 | 0.00 | 0.00 | 39 | 1016.9 |
| 20260507143158 | 55 | 180 | 5.2 | 4.3 | 0.00 | 0.00 | 0.00 | 37 | 1016.9 |
| 20260507142158 | 55 | 202 | 5.2 | 3.5 | 0.00 | 0.00 | 0.00 | 37 | 1016.9 |
| 20260507141157 | 55 | 292 | 5.2 | 5.2 | 0.00 | 0.00 | 0.00 | 35 | 1016.9 |
| 20260507140159 | 58 | 270 | 7.0 | 7.0 | 0.00 | 0.00 | 0.00 | 23 | 1016.9 |
| 20260507135159 | 62 | 292 | 4.3 | 7.0 | 0.00 | 0.00 | 0.00 | 22 | 1016.9 |
| 20260507134158 | 64 | 225 | 1.7 | 0.0 | 0.00 | 0.00 | 0.00 | 21 | 1016.9 |
| 20260507133157 | 63 | 225 | 3.5 | 5.2 | 0.00 | 0.00 | 0.00 | 21 | 1016.9 |
| 20260507132159 | 63 | 247 | 3.5 | 2.6 | 0.00 | 0.00 | 0.00 | 21 | 1016.9 |
| 20260507131159 | 62 | 180 | 3.5 | 2.6 | 0.00 | 0.00 | 0.00 | 22 | 1016.9 |
| 20260507130158 | 61 | 270 | 1.7 | 3.5 | 0.00 | 0.00 | 0.00 | 22 | 1016.9 |
| 20260507125158 | 60 | 247 | 4.3 | 3.5 | 0.00 | 0.00 | 0.00 | 22 | 1016.9 |
| 20260507124157 | 60 | 270 | 3.5 | 3.5 | 0.00 | 0.00 | 0.00 | 22 | 1016.9 |
| 20260507123159 | 58 | 270 | 4.3 | 4.3 | 0.00 | 0.00 | 0.00 | 23 | 1016.9 |
| 20260507122159 | 58 | 247 | 5.2 | 4.3 | 0.00 | 0.00 | 0.00 | 23 | 1016.9 |
| 20260507121159 | 60 | 270 | 5.2 | 4.3 | 0.00 | 0.00 | 0.00 | 22 | 1016.9 |
| 20260507120158 | 60 | 247 | 4.3 | 4.3 | 0.00 | 0.00 | 0.00 | 22 | 1016.9 |
| 20260507115158 | 61 | 270 | 6.1 | 6.1 | 0.00 | 0.00 | 0.00 | 22 | 1016.9 |
| 20260507114159 | 61 | 180 | 1.7 | 0.0 | 0.00 | 0.00 | 0.00 | 22 | 1016.9 |
| 20260507113158 | 62 | 247 | 7.8 | 9.6 | 0.00 | 0.00 | 0.00 | 22 | 1016.9 |
| 20260507112156 | 62 | 247 | 3.5 | 4.3 | 0.00 | 0.00 | 0.00 | 22 | 1016.9 |
| 20260507111158 | 61 | 270 | 3.5 | 2.6 | 0.00 | 0.00 | 0.00 | 22 | 1016.9 |
| 20260507110157 | 60 | 225 | 4.3 | 5.2 | 0.00 | 0.00 | 0.00 | 22 | 1016.9 |
| 20260507105157 | 60 | 292 | 5.2 | 2.6 | 0.00 | 0.00 | 0.00 | 22 | 1016.9 |
| 20260507104156 | 59 | 270 | 5.2 | 4.3 | 0.00 | 0.00 | 0.00 | 22 | 1016.9 |
| 20260507103158 | 58 | 315 | 4.3 | 6.1 | 0.00 | 0.00 | 0.00 | 23 | 1016.9 |
| 20260507102131 | 59 | 270 | 5.2 | 2.6 | 0.00 | 0.00 | 0.00 | 22 | 1016.9 |
| 20260507101131 | 58 | 270 | 1.7 | 2.6 | 0.00 | 0.00 | 0.00 | 23 | 1016.9 |
| 20260507100136 | 58 | 292 | 5.2 | 5.2 | 0.00 | 0.00 | 0.00 | 23 | 1016.9 |
| 20260507095132 | 59 | 180 | 3.5 | 3.5 | 0.00 | 0.00 | 0.00 | 22 | 1016.9 |
| 20260507094136 | 58 | 0 | 3.5 | 3.5 | 0.00 | 0.00 | 0.00 | 23 | 1016.9 |
| 20260507093131 | 57 | 247 | 7.8 | 3.5 | 0.00 | 0.00 | 0.00 | 23 | 1016.9 |
| 20260507092136 | 58 | 225 | 4.3 | 4.3 | 0.00 | 0.00 | 0.00 | 23 | 1016.9 |
| 20260507090132 | 57 | 270 | 5.2 | 2.6 | 0.00 | 0.00 | 0.00 | 23 | 1016.9 |
| 20260507085136 | 58 | 180 | 3.5 | 4.3 | 0.00 | 0.00 | 0.00 | 23 | 1016.9 |
| 20260507081135 | 58 | 292 | 2.6 | 2.6 | 0.00 | 0.00 | 0.00 | 23 | 1015.9 |
| 20260507074133 | 58 | 180 | 0.9 | 0.0 | 0.00 | 0.00 | 0.00 | 30 | 1015.9 |
| 20260507073133 | 58 | 202 | 4.3 | 5.2 | 0.00 | 0.00 | 0.00 | 32 | 1015.9 |
| 20260507072132 | 57 | 270 | 1.7 | 0.0 | 0.00 | 0.00 | 0.00 | 32 | 1015.9 |
| 20260507070131 | 51 | 180 | 3.5 | 4.3 | 0.00 | 0.16 | 0.00 | 60 | 1015.9 |
| 20260507063136 | 51 | 180 | 3.5 | 4.3 | 0.00 | 0.16 | 0.00 | 60 | 1015.9 |
| 20260507062134 | 51 | 180 | 3.5 | 4.3 | 0.00 | 0.16 | 0.00 | 60 | 1015.9 |
| 20260507060136 | 51 | 180 | 3.5 | 4.3 | 0.00 | 0.16 | 0.00 | 60 | 1015.9 |
| 20260507055132 | 51 | 180 | 3.5 | 4.3 | 0.00 | 0.16 | 0.00 | 60 | 1015.9 |
| 20260507052131 | 51 | 180 | 3.5 | 4.3 | 0.00 | 0.16 | 0.00 | 60 | 1015.9 |
| 20260507051136 | 51 | 180 | 4.3 | 3.5 | 0.00 | 0.16 | 0.00 | 60 | 1015.9 |
| 20260507050131 | 50 | 157 | 3.5 | 3.5 | 0.00 | 0.16 | 0.00 | 60 | 1014.9 |
| 20260507044130 | 50 | 180 | 0.0 | 0.0 | 0.00 | 0.16 | 0.00 | 60 | 1014.9 |
| 20260507043135 | 49 | 180 | 3.5 | 3.5 | 0.00 | 0.16 | 0.00 | 61 | 1014.9 |
| 20260507040132 | 49 | 180 | 5.2 | 4.3 | 0.00 | 0.16 | 0.00 | 62 | 1014.9 |
| 20260507035131 | 49 | 157 | 2.6 | 3.5 | 0.00 | 0.16 | 0.00 | 62 | 1014.9 |
| 20260507034134 | 49 | 180 | 4.3 | 5.2 | 0.00 | 0.16 | 0.00 | 63 | 1014.9 |
| 20260507033132 | 49 | 135 | 5.2 | 3.5 | 0.00 | 0.16 | 0.00 | 62 | 1014.9 |
| 20260507030131 | 48 | 202 | 3.5 | 4.3 | 0.00 | 0.16 | 0.00 | 63 | 1013.9 |
| 20260507025132 | 48 | 180 | 3.5 | 3.5 | 0.00 | 0.16 | 0.00 | 62 | 1013.9 |
| 20260507024132 | 48 | 180 | 5.2 | 4.3 | 0.00 | 0.16 | 0.00 | 62 | 1013.9 |
| 20260507022131 | 49 | 157 | 5.2 | 6.1 | 0.00 | 0.16 | 0.00 | 63 | 1013.9 |
| 20260507020136 | 48 | 157 | 5.2 | 5.2 | 0.00 | 0.16 | 0.00 | 62 | 1013.9 |
| 20260507015131 | 48 | 157 | 4.3 | 4.3 | 0.00 | 0.16 | 0.00 | 62 | 1013.9 |
| 20260507014131 | 49 | 157 | 0.0 | 0.0 | 0.00 | 0.16 | 0.00 | 62 | 1013.9 |
| 20260507012136 | 49 | 180 | 4.3 | 4.3 | 0.00 | 0.16 | 0.00 | 62 | 1013.9 |
| 20260507011131 | 49 | 157 | 3.5 | 3.5 | 0.00 | 0.16 | 0.00 | 62 | 1013.9 |
| 20260507010130 | 49 | 202 | 3.5 | 3.5 | 0.00 | 0.16 | 0.00 | 62 | 1013.9 |
| 20260507004136 | 49 | 225 | 2.6 | 3.5 | 0.00 | 0.16 | 0.00 | 62 | 1013.9 |
| 20260507003131 | 49 | 157 | 7.8 | 8.7 | 0.00 | 0.16 | 0.00 | 61 | 1013.9 |
| 20260507001132 | 49 | 180 | 4.3 | 4.3 | 0.00 | 0.16 | 0.00 | 61 | 1013.9 |
| 20260506234135 | 50 | 180 | 2.6 | 3.5 | 0.00 | 0.16 | 0.00 | 60 | 1013.9 |
| 20260506232131 | 50 | 157 | 4.3 | 3.5 | 0.00 | 0.16 | 0.00 | 60 | 1013.9 |
| 20260506230137 | 50 | 180 | 4.3 | 5.2 | 0.00 | 0.16 | 0.00 | 59 | 1013.9 |
| 20260506224132 | 51 | 180 | 4.3 | 2.6 | 0.00 | 0.16 | 0.00 | 59 | 1013.9 |
| 20260506222132 | 51 | 157 | 2.6 | 4.3 | 0.00 | 0.16 | 0.00 | 59 | 1013.9 |
| 20260506221132 | 51 | 180 | 3.5 | 3.5 | 0.00 | 0.16 | 0.00 | 58 | 1012.9 |
| 20260506220131 | 51 | 180 | 5.2 | 5.2 | 0.00 | 0.16 | 0.00 | 58 | 1012.9 |
| 20260506212135 | 51 | 180 | 3.5 | 3.5 | 0.00 | 0.12 | 0.12 | 58 | 1012.9 |
| 20260506211131 | 51 | 225 | 1.7 | 2.6 | 0.00 | 0.12 | 0.12 | 57 | 1012.9 |
| 20260506204132 | 52 | 247 | 4.3 | 6.1 | 0.00 | 0.08 | 0.08 | 57 | 1012.9 |
| 20260506202136 | 52 | 270 | 7.0 | 7.0 | 0.00 | 0.08 | 0.08 | 58 | 1012.9 |
| 20260506195132 | 53 | 180 | 9.6 | 10.4 | 0.08 | 0.08 | 0.08 | 60 | 1011.9 |
| 20260506194131 | 54 | 225 | 6.1 | 7.8 | 0.08 | 0.08 | 0.08 | 59 | 1011.9 |
| 20260506193131 | 54 | 247 | 7.8 | 10.4 | 0.04 | 0.04 | 0.04 | 59 | 1011.9 |